Regional Weather Roundup
Issued by NWS Little Rock, AR

Home | Current Version | Previous Version | Graphics & Text | Print | Product List | Glossary On
Versions: 1 2 3 4 5 6 7 8 9 10 11 12 13 14 15 16 17 18 19 20 21 22 23 24 25 26 27 28 29 30 31 32 33 34 35 36 37 38 39 40 41 42 43 44 45 46 47 48 49 50
000
ASUS44 KLZK 042305
RWRLZK

WEATHER ROUNDUP FOR ARKANSAS
NATIONAL WEATHER SERVICE LITTLE ROCK AR
600 PM CDT TUE AUG 04 2015

NOTE: "FAIR" INDICATES FEW OR NO CLOUDS BELOW 12,000 FEET WITH NO
SIGNIFICANT WEATHER AND/OR OBSTRUCTIONS TO VISIBILITY.

ARZ001-003-010-029-050000-
NORTHWEST ARKANSAS

CITY           SKY/WX    TMP DP  RH WIND       PRES   REMARKS
FAYETTEVILLE   CLOUDY    82  71  69 E6        29.97F HX  86
FORT SMITH     PTSUNNY   87  71  58 E7        29.92F HX  93
HARRISON       CLOUDY    82  71  69 W5        29.99F HX  86
BENTONVILLE    CLOUDY    81  66  61 N5        29.98F
ROGERS         CLOUDY    80  69  69 N3        29.99F
SILOAM SPGS    CLOUDY    81  66  61 E3        29.96F
HIGHFILL       CLOUDY    82  70  66 NE3       29.97F HX  86
SPRINGDALE     PTSUNNY   82  70  65 CALM      30.00F HX  86
$$

ARZ004-005-016-050000-
NORTH CENTRAL ARKANSAS

CITY           SKY/WX    TMP DP  RH WIND       PRES   REMARKS
BATESVILLE     CLOUDY    91  70  49 SE5       29.93F HX  97
FLIPPIN        CLOUDY    88  70  55 CALM      29.94F HX  92
MTN HOME       CLOUDY    86  74  67 S3        29.95F HX  94
$$

ARZ040-041-050000-
WEST CENTRAL ARKANSAS

CITY           SKY/WX    TMP DP  RH WIND       PRES   REMARKS
MENA           CLOUDY    88  73  62 CALM      29.97S HX  96
MOUNT IDA      CLOUDY    85  72  65 CALM      29.93F HX  91
$$

ARZ009-017-025-026-028-050000-
NORTHEAST ARKANSAS

CITY           SKY/WX    TMP DP  RH WIND       PRES   REMARKS
JONESBORO      PTSUNNY   89  64  43 SW6       29.93F HX  90
NEWPORT        MOSUNNY   92  71  50 VRB5      29.94F HX  98
WALNUT RIDGE   PTSUNNY   91  68  46 SW7       29.93S HX  95
BLYTHEVILLE    MOSUNNY   92  72  51 W5        29.93F HX  99
$$

ARZ022-023-033-042-044-050000-
CENTRAL ARKANSAS

CITY           SKY/WX    TMP DP  RH WIND       PRES   REMARKS
LITTLE ROCK    CLOUDY    93  67  42 SE5       29.92F HX  96
N LITTLE ROCK  PTSUNNY   92  69  45 S7        29.92F HX  97
JACKSONVILLE   PTSUNNY   94  67  42 S6        29.92F HX  97
SEARCY         PTSUNNY   92  72  51 S6        29.94S HX  99
HOT SPRINGS    CLOUDY    92  68  45 S6        29.93F HX  96
RUSSELLVILLE   CLOUDY    84  69  60 VRB5      29.94F HX  88
$$

ARZ036-050000-
EAST ARKANSAS

CITY           SKY/WX    TMP DP  RH WIND       PRES   REMARKS
WEST MEMPHIS   SUNNY     93  69  45 SW3       29.92F HX  98
$$

ARZ050-053-066-070-073-050000-
SOUTHWEST ARKANSAS

CITY           SKY/WX    TMP DP  RH WIND       PRES   REMARKS
ARKADELPHIA    FAIR      92  71  50 SW7       29.92F HX  98
CAMDEN         MOSUNNY   93  72  49 CALM      29.91S HX 100
TEXARKANA      MOSUNNY   95  66  38 S8        29.91F HX  98
EL DORADO      SUNNY     96  65  35 S7        29.92F HX  98
DE QUEEN       CLOUDY    91  77  63 CALM      29.90F HX 104
$$

ARZ056-057-069-050000-
SOUTHEAST ARKANSAS

CITY           SKY/WX    TMP DP  RH WIND       PRES   REMARKS
PINE BLUFF     MOSUNNY   94  72  48 E6        29.92F HX 102
STUTTGART      MOSUNNY   93  63  36 MISG      29.93F HX  94
MONTICELLO     PTSUNNY   90  69  50 N5        29.92F HX  94

$$





USA.gov is the U.S. government's official web portal to all federal, state and local government web resources and services.